Skip to content
Skip to navigation menu

 

Cardiff School of Biosciences Exam Timetable 2014-15

Exam Paper Number Exam Paper Title Start time Date Duration (Hrs) Venue
BI0001 CELLS AND THE CHEMISTRY OF LIFE 13:00:00 13/01/2015 1.5 LT
BI0002 GENETICS, EVOLUTION AND DIVERSITY 13:00:00 20/01/2015 1.5 SU
BI1001 SKILLS FOR SCIENCE 13:00:00 23/01/2015 1 LT
BI1002 STRUCTURE AND FUNCTION OF LIVING ORGANISMS 13:00:00 15/01/2015 1 LT
BI1003 ORGANISMS AND ENVIRONMENT 13:00:00 19/01/2015 1 LT
BI1004 THE DYNAMIC CELL 13:00:00 21/01/2015 1 LT
BI1014 BIOLOGICAL CHEMISTRY 13:00:00 12/01/2015 1.5 LT
BI1313 PHYSIOLOGY 1 13:00:00 13/01/2015 1.5 LT
BI2110 ANIMAL BEHAVIOUR: AN INTRODUCTION 13:00:00 20/01/2015 1.5 SU
BI2115 PLANT FORM AND FUNCTION 13:00:00 14/01/2015 1.5 CH
BI2118 ANIMAL DIVERSITY 09:00:00 22/01/2015 3 LT
BI2120 MICROBIAL FUNCTION 13:00:00 21/01/2015 1.5 NCM
BI2121 MOLECULAR ECOLOGY AND EVOLUTION 13:00:00 12/01/2015 1.5 LT
BI2212 GENETIC MANIPULATION 09:00:00 21/01/2015 1.5 SAS(S)
BI2213 METABOLISM IN HEALTH AND DISEASE 09:00:00 13/01/2015 1.5 MU
BI2215 PROTEIN BIOCHEMISTRY AND ENZYMOLOGY 13:00:00 23/01/2015 1.5 CH
BI2217 NON-BACTERIAL PATHOGENS 13:00:00 15/01/2015 1.5 TP
BI2218 CONCEPTS IN BIOTECHNOLOGY 13:00:00 19/01/2015 1.5 SU
BI2219 MEDICAL BIOCHEMISTRY 09:00:00 13/01/2015 3 LT
BI2220 APPLIED AND HUMAN GENETICS 09:00:00 15/01/2015 3 NCM
BI2301 HUMAN NEUROANATOMY 09:00:00 20/01/2015 3 NCM
BI2312 HUMAN ANATOMY - THORAX 13:00:00 15/01/2015 1.5 NCH
BI2317 PHYSIOLOGY OF THE CENTRAL NERVOUS SYSTEM 09:00:00 13/01/2015 1.5 MU
BI2318 THE BIOLOGY OF CONNECTIVE TISSUES 13:00:00 13/01/2015 1.5 LT
BI2322 PHYSIOLOGY AND PHARMACOLOGY OF THE CNS 09:00:00 13/01/2015 3 NCH
BI2323 HUMAN ANATOMY - TRUNK 13:00:00 15/01/2015 2 NCM
BIT007 MATHEMATICAL TOOLS IN PHOTONICS & BIOLOGY - MATHEMATICAL METHODS (PAPER 1) 09:00:00 16/01/2015 2  MU
BIT007 MATHEMATICAL TOOLS IN PHOTONICS & BIOLOGY - STATISTICAL ANALYSIS (PAPER 2) 09:00:00 20/01/2015 2 CH
BIT008 OPTICS AND LIGHT SPECTROSCOPY INCLUDING OPTICAL PROPERTIES OF BIOMOLECULES 09:00:00 13/01/2015 3 NCH
  • CH = City Hall, Cathays Park, CF10 3ND; LT = Sports Hall, Talybont, CF14 3UX; MU = Concert Hall, Music Building, CF10 3UP; NCH = Main Hall, Ground Floor, All Nations Centre, Sachville Avenue, off Whitchurch Road, CF14 3NY; NCM = Muller Hall, First Floor, All Nations Centre, Sachville Avenue, off Whitchurch Road, CF14 3NY; NR = Room 0.05 Ground Floor McKenzie House, 30 - 36 Newport Road, CF24 0DE; S1.29 = Room 1.29, South Building, The Parade, CF24 3AA; SAS(P) = President's Room, Sports and Social Club, Heath Park Campus, CF14 4XW; SAS(R) = Recreation Hall, Sports and Social Club, Heath Park Campus, CF14 4XW; SAS(S) = Sports Hall, Sports and Social Club, Heath Park Campus, CF14 4XW; SC = School - please consult your school's notice board; SU = Great Hall, Students' Union, CF10 3QN; TDS = Ty Dewi Sant, Heath Park Campus, CF14 4XN; TP = Temple of Peace, King Edward VII Avenue, Cathays Park, CF10 3AP; TVS = Seminar Rooms 1 & 2, Ground Floor, Trevithick Building, The Parade, CF24 3AA